AFR120 TNCM-TFFR

Flight info

Callsign AFR120
Flight time 0h 43m
Altitude 19000
Route MODOR2 ZPATA A517 BIMBO BIMBO2Z
Aircraft A320/M-SDE3FGHIRWY/LB1

Departure

Time 2026-05-04 17:23
Airport Princess Juliana International Airport (TNCM)

Arrival

Time 2026-05-04 18:07
Airport Maryse Condé International Airport (TFFR)
Time Latitude Longitude Altitude Speed Heading
2026-05-04 16:58 18.04353 -63.11224 21 ft 0 kts 352°
2026-05-04 17:15 18.04346 -63.11223 21 ft 2 kts 352°
2026-05-04 17:16 18.04305 -63.11217 25 ft 3 kts 352°
2026-05-04 17:16 18.04292 -63.11215 23 ft 1 kts 352°
2026-05-04 17:20 18.04293 -63.11231 39 ft 4 kts 261°
2026-05-04 17:20 18.04261 -63.11295 21 ft 13 kts 243°
2026-05-04 17:21 18.04225 -63.11462 21 ft 13 kts 256°
2026-05-04 17:21 18.04096 -63.11639 21 ft 15 kts 231°
2026-05-04 17:22 18.04063 -63.11658 21 ft 0 kts 184°
2026-05-04 17:22 18.04062 -63.11658 21 ft 3 kts 183°
2026-05-04 17:23 18.04056 -63.11142 25 ft 94 kts 81°
2026-05-04 17:23 18.04184 -63.10282 36 ft 147 kts 84°
2026-05-04 17:23 18.04064 -63.08074 1255 ft 163 kts 128°
2026-05-04 17:24 18.03110 -63.07430 2011 ft 173 kts 163°
2026-05-04 17:24 17.99193 -63.07564 3672 ft 206 kts 179°
2026-05-04 17:25 17.97688 -63.07669 4054 ft 228 kts 180°
2026-05-04 17:25 17.94209 -63.07828 4946 ft 268 kts 178°
2026-05-04 17:26 17.90465 -63.07982 6825 ft 269 kts 180°
2026-05-04 17:26 17.84864 -63.07389 9057 ft 282 kts 142°
2026-05-04 17:27 17.81905 -63.04710 10497 ft 291 kts 149°
2026-05-04 17:27 17.78205 -63.02436 11200 ft 325 kts 149°
2026-05-04 17:28 17.74171 -62.99959 12333 ft 340 kts 149°
2026-05-04 17:29 17.67959 -62.96113 14226 ft 352 kts 149°
2026-05-04 17:29 17.61521 -62.92114 15802 ft 366 kts 150°
2026-05-04 17:30 17.54817 -62.87951 17337 ft 380 kts 150°
2026-05-04 17:31 17.50214 -62.85110 18357 ft 390 kts 150°
2026-05-04 17:31 17.43061 -62.81004 19075 ft 381 kts 155°
2026-05-04 17:32 17.38327 -62.78719 19082 ft 374 kts 156°
2026-05-04 17:33 17.31242 -62.75254 19085 ft 374 kts 151°
2026-05-04 17:33 17.29094 -62.73712 19082 ft 374 kts 139°
2026-05-04 17:34 17.23832 -62.67689 19083 ft 374 kts 131°
2026-05-04 17:34 17.22098 -62.65648 19084 ft 374 kts 131°
2026-05-04 17:35 17.16919 -62.59555 19079 ft 375 kts 131°
2026-05-04 17:35 17.14471 -62.56665 19074 ft 374 kts 131°
2026-05-04 17:35 17.12753 -62.54650 19075 ft 374 kts 131°
2026-05-04 17:36 17.11011 -62.52606 19073 ft 374 kts 131°
2026-05-04 17:36 17.09277 -62.50570 19069 ft 373 kts 131°
2026-05-04 17:36 17.07571 -62.48569 19071 ft 373 kts 131°
2026-05-04 17:36 17.05837 -62.46537 19066 ft 373 kts 131°
2026-05-04 17:37 17.04100 -62.44501 19064 ft 373 kts 131°
2026-05-04 17:37 17.02391 -62.42496 19064 ft 373 kts 131°
2026-05-04 17:37 17.00660 -62.40464 19068 ft 373 kts 131°
2026-05-04 17:37 16.98925 -62.38430 19072 ft 373 kts 131°
2026-05-04 17:38 16.97200 -62.36408 19071 ft 373 kts 131°
2026-05-04 17:38 16.95491 -62.34405 19074 ft 373 kts 131°
2026-05-04 17:38 16.93755 -62.32373 19074 ft 373 kts 131°
2026-05-04 17:38 16.92040 -62.30366 19077 ft 373 kts 131°
2026-05-04 17:39 16.89164 -62.26998 19079 ft 373 kts 131°
2026-05-04 17:39 16.87431 -62.24968 19084 ft 373 kts 131°
2026-05-04 17:39 16.85143 -62.22291 19085 ft 372 kts 131°
2026-05-04 17:40 16.83992 -62.20943 19086 ft 372 kts 131°
2026-05-04 17:40 16.82261 -62.18914 19086 ft 372 kts 131°
2026-05-04 17:40 16.80538 -62.16892 19086 ft 372 kts 131°
2026-05-04 17:40 16.78834 -62.14895 19084 ft 372 kts 131°
2026-05-04 17:41 16.77107 -62.12875 19085 ft 372 kts 131°
2026-05-04 17:41 16.75369 -62.10854 19084 ft 372 kts 131°
2026-05-04 17:41 16.73656 -62.08860 19080 ft 372 kts 131°
2026-05-04 17:41 16.71932 -62.06847 19080 ft 371 kts 131°
2026-05-04 17:42 16.70206 -62.04830 19076 ft 371 kts 131°
2026-05-04 17:42 16.68500 -62.02838 19073 ft 371 kts 131°
2026-05-04 17:42 16.66775 -62.00826 19072 ft 371 kts 131°
2026-05-04 17:42 16.65014 -61.98830 19068 ft 371 kts 136°
2026-05-04 17:43 16.62990 -61.97218 19067 ft 371 kts 149°
2026-05-04 17:43 16.60639 -61.96100 19063 ft 372 kts 162°
2026-05-04 17:43 16.58101 -61.95554 19060 ft 372 kts 174°
2026-05-04 17:43 16.55542 -61.95299 19058 ft 372 kts 174°
2026-05-04 17:44 16.52901 -61.95030 19059 ft 389 kts 174°
2026-05-04 17:44 16.50184 -61.94747 19052 ft 391 kts 174°
2026-05-04 17:44 16.47472 -61.94463 19055 ft 391 kts 174°
2026-05-04 17:44 16.44794 -61.94183 19055 ft 391 kts 174°
2026-05-04 17:45 16.42078 -61.93899 19055 ft 391 kts 174°
2026-05-04 17:45 16.39407 -61.93622 18950 ft 377 kts 174°
2026-05-04 17:45 16.36880 -61.93361 18821 ft 358 kts 174°
2026-05-04 17:45 16.34455 -61.93114 18571 ft 340 kts 175°
2026-05-04 17:46 16.32088 -61.93131 17821 ft 340 kts 193°
2026-05-04 17:46 16.29921 -61.94075 17038 ft 336 kts 217°
2026-05-04 17:46 16.28294 -61.95723 16530 ft 326 kts 231°
2026-05-04 17:46 16.26919 -61.97586 15885 ft 322 kts 234°
2026-05-04 17:47 16.25640 -61.99464 15263 ft 320 kts 235°
2026-05-04 17:47 16.24286 -62.01292 14648 ft 316 kts 223°
2026-05-04 17:47 16.22526 -62.02606 14068 ft 310 kts 203°
2026-05-04 17:47 16.20502 -62.03218 13444 ft 304 kts 184°
2026-05-04 17:48 16.18414 -62.03117 12785 ft 298 kts 165°
2026-05-04 17:48 16.16642 -62.02451 12178 ft 294 kts 150°
2026-05-04 17:48 16.15015 -62.01192 11538 ft 289 kts 133°
2026-05-04 17:48 16.13838 -61.99518 10919 ft 285 kts 116°
2026-05-04 17:49 16.13203 -61.97608 10314 ft 283 kts 100°
2026-05-04 17:49 16.13123 -61.95573 9676 ft 280 kts 84°
2026-05-04 17:49 16.13602 -61.93618 9015 ft 278 kts 68°
2026-05-04 17:49 16.14592 -61.91898 8364 ft 277 kts 52°
2026-05-04 17:50 16.16004 -61.90552 7726 ft 276 kts 36°
2026-05-04 17:50 16.17706 -61.89684 7100 ft 276 kts 20°
2026-05-04 17:50 16.19610 -61.89353 6569 ft 278 kts
2026-05-04 17:50 16.21553 -61.89572 6415 ft 283 kts 352°
2026-05-04 17:51 16.23453 -61.90014 6364 ft 274 kts 349°
2026-05-04 17:51 16.25198 -61.90509 6372 ft 245 kts 347°
2026-05-04 17:51 16.26803 -61.90993 6381 ft 247 kts 347°
2026-05-04 17:51 16.28529 -61.91430 6364 ft 262 kts 359°
2026-05-04 17:52 16.30298 -61.91213 6120 ft 252 kts 25°
2026-05-04 17:52 16.31743 -61.90262 5582 ft 244 kts 50°
2026-05-04 17:52 16.32591 -61.88789 5320 ft 242 kts 74°
2026-05-04 17:52 16.32763 -61.87080 5147 ft 233 kts 97°
2026-05-04 17:53 16.32461 -61.85379 5096 ft 239 kts 101°
2026-05-04 17:53 16.32148 -61.83696 5020 ft 239 kts 101°
2026-05-04 17:53 16.31837 -61.81999 4926 ft 238 kts 101°
2026-05-04 17:53 16.31526 -61.80299 4825 ft 238 kts 101°
2026-05-04 17:54 16.31215 -61.78602 4715 ft 236 kts 101°
2026-05-04 17:54 16.30911 -61.76941 4527 ft 234 kts 101°
2026-05-04 17:54 16.30602 -61.75260 4188 ft 236 kts 101°
2026-05-04 17:54 16.30294 -61.73582 3867 ft 235 kts 102°
2026-05-04 17:55 16.29989 -61.71925 3641 ft 229 kts 102°
2026-05-04 17:55 16.29690 -61.70301 3606 ft 233 kts 102°
2026-05-04 17:55 16.29384 -61.68640 3612 ft 232 kts 101°
2026-05-04 17:55 16.29079 -61.66985 3609 ft 233 kts 102°
2026-05-04 17:56 16.28774 -61.65332 3609 ft 231 kts 101°
2026-05-04 17:56 16.28485 -61.63760 3605 ft 215 kts 102°
2026-05-04 17:56 16.28203 -61.62244 3243 ft 217 kts 103°
2026-05-04 17:56 16.27876 -61.60649 2104 ft 235 kts 103°
2026-05-04 17:57 16.27611 -61.58979 1162 ft 226 kts 100°
2026-05-04 17:57 16.27365 -61.57484 777 ft 192 kts 104°
2026-05-04 17:57 16.27097 -61.56221 348 ft 169 kts 104°
2026-05-04 17:57 16.26895 -61.55102 162 ft 145 kts 105°
2026-05-04 17:58 16.26712 -61.54137 19 ft 125 kts 104°
2026-05-04 17:58 16.26563 -61.53360 28 ft 99 kts 99°
2026-05-04 17:58 16.26414 -61.52547 106 ft 136 kts 103°
2026-05-04 17:58 16.26203 -61.51471 560 ft 166 kts 105°
2026-05-04 17:59 16.25922 -61.50221 959 ft 184 kts 104°
2026-05-04 17:59 16.25595 -61.48876 1474 ft 197 kts 105°
2026-05-04 17:59 16.23760 -61.46813 3047 ft 208 kts 157°
2026-05-04 18:00 16.22306 -61.46632 3381 ft 213 kts 185°
2026-05-04 18:00 16.20933 -61.47237 3626 ft 227 kts 214°
2026-05-04 18:00 16.19926 -61.48535 3801 ft 235 kts 241°
2026-05-04 18:00 16.19555 -61.50170 3613 ft 237 kts 271°
2026-05-04 18:01 16.19905 -61.51852 3679 ft 239 kts 287°
2026-05-04 18:01 16.20380 -61.53510 3628 ft 241 kts 286°
2026-05-04 18:01 16.20875 -61.55189 3550 ft 241 kts 287°
2026-05-04 18:02 16.21951 -61.58467 3361 ft 239 kts 289°
2026-05-04 18:02 16.22541 -61.60078 3276 ft 237 kts 290°
2026-05-04 18:02 16.23158 -61.61677 3389 ft 234 kts 291°
2026-05-04 18:02 16.23756 -61.63229 3471 ft 226 kts 291°
2026-05-04 18:03 16.24340 -61.64691 3422 ft 210 kts 302°
2026-05-04 18:03 16.25374 -61.65598 3318 ft 189 kts 347°
2026-05-04 18:03 16.26677 -61.65672 2806 ft 194 kts 15°
2026-05-04 18:03 16.27933 -61.65121 2268 ft 193 kts 42°
2026-05-04 18:04 16.28681 -61.64097 2038 ft 170 kts 79°
2026-05-04 18:04 16.28550 -61.62985 1778 ft 154 kts 114°
2026-05-04 18:04 16.28006 -61.60900 1217 ft 140 kts 102°
2026-05-04 18:05 16.27807 -61.59906 1091 ft 145 kts 105°
2026-05-04 18:05 16.27598 -61.58892 972 ft 145 kts 106°
2026-05-04 18:05 16.27431 -61.57908 756 ft 147 kts 102°
2026-05-04 18:05 16.27228 -61.56857 531 ft 144 kts 107°
2026-05-04 18:06 16.26855 -61.54891 115 ft 134 kts 105°
2026-05-04 18:06 16.26682 -61.53979 20 ft 117 kts 103°
2026-05-04 18:06 16.26556 -61.53316 25 ft 68 kts 101°
2026-05-04 18:07 16.26513 -61.53076 27 ft 25 kts 103°
2026-05-04 18:07 16.26568 -61.52983 25 ft 17 kts
2026-05-04 18:07 16.26643 -61.52968 25 ft 16 kts 11°